RH
53 44 44 38 38 39 40 40 37 34 26 21 19 18 17 17 17 18 18 20 24 26 25 22 18 17 18 17 17 16 15 14 12 13 13 14 14 16 15 14 15 16 15 16 18 18 19
56 43 42 44 38 37 36 38 39 36 33 30 24 22 23 22 21 21 23 24 23 23 24 23 21 15 15 17 15 15 14 13 13 13 13 14 15 15 15 16 16 15 16 16 17 17 21
60 42 40 43 42 38 36 34 35 37 35 32 31 27 24 23 24 26 26 26 24 23 22 23 20 19 14 15 13 13 14 12 14 15 15 15 16 17 16 18 19 18 17 18 19 20 23
61 44 39 43 42 41 38 36 35 33 33 33 32 30 30 28 25 25 25 24 24 23 24 24 19 20 17 15 14 14 14 13 15 16 17 17 18 19 18 20 20 20 26 31 28 23 24
58 47 38 42 44 41 40 39 37 34 32 31 31 30 30 29 29 28 25 24 26 25 23 22 20 18 18 16 15 15 15 15 17 17 18 19 20 21 20 22 34 31 27 30 35 27 27
55 49 41 40 43 44 43 40 38 37 34 32 31 30 29 28 28 28 28 27 26 24 24 23 21 20 18 17 17 16 17 17 18 19 20 22 21 22 30 26 25 29 30 32 35 37 27
57 52 44 44 44 43 44 44 42 39 37 35 34 32 30 29 29 29 28 28 28 25 25 24 24 22 19 18 18 18 19 20 21 21 22 24 25 29 22 22 23 23 25 37 35 32 24
58 60 50 42 46 46 44 42 43 42 40 38 36 35 33 32 31 30 29 28 29 28 27 26 26 24 24 20 19 20 20 22 23 23 24 27 35 23 22 22 23 24 29 34 28 25 25
50 57 58 50 43 43 46 46 41 41 42 40 38 36 35 34 31 32 30 30 30 29 29 27 27 26 26 23 21 21 22 24 25 25 26 28 27 22 21 22 24 35 36 33 31 25 26
44 48 54 56 54 52 44 42 44 43 39 40 41 39 37 34 34 33 32 32 31 31 28 28 27 28 26 25 24 23 24 26 28 28 28 27 25 24 21 23 27 29 30 29 30 42 36
24 37 46 52 57 57 56 51 44 41 41 41 39 40 40 39 36 35 34 33 33 32 57 29 29 28 28 28 28 26 27 28 30 31 32 34 31 25 24 24 28 32 31 33 33 37 49
9 11 23 39 48 53 56 58 57 52 44 40 41 42 41 41 41 39 36 34 33 36 62 30 30 30 31 31 31 30 29 30 32 33 33 34 31 28 27 26 28 36 33 43 44 52 55
12 8 9 12 27 41 47 50 52 53 51 50 48 42 37 38 40 41 41 38 40 49 32 32 33 34 35 35 34 33 32 31 35 40 46 40 35 31 28 29 35 42 45 47 54 59 43
15 14 12 9 9 13 28 37 41 42 45 45 46 48 48 45 37 36 41 42 53 37 33 36 38 39 38 36 34 33 34 36 37 40 44 46 50 38 37 34 46 50 44 49 51 44 38
18 17 15 13 12 8 9 12 20 29 34 38 40 42 43 47 49 47 39 57 49 41 41 45 45 42 39 37 39 39 39 40 41 40 43 45 46 42 38 44 51 58 50 52 53 47 49
20 19 18 16 15 13 12 9 9 11 15 21 28 32 35 38 38 41 47 52 42 43 45 50 51 47 45 45 44 45 45 44 43 45 47 50 53 52 52 54 53 50 51 58 56 60 55
21 20 20 18 17 16 14 13 12 10 10 12 16 20 25 31 35 40 44 58 43 44 45 50 52 54 54 53 51 50 49 49 47 48 52 55 59 58 61 60 57 58 60 61 65 71 82
22 22 21 20 18 17 16 15 15 14 13 11 10 11 18 24 27 33 45 44 44 44 47 49 49 50 56 58 58 59 56 55 50 51 56 58 59 64 63 63 66 66 63 64 95 93 88
23 22 21 20 20 18 17 16 16 14 13 12 12 12 12 12 31 60 52 41 43 42 45 55 61 61 60 60 62 61 59 57 56 57 60 63 69 74 67 74 76 81 86 95 99 99 97
32 34 29 28 24 22 20 19 19 18 16 19 25 31 29 25 29 32 57 54 53 59 67 68 70 68 70 75 78 66 68 68 70 71 68 71 75 80 94 84 86 99 99 99 99 97 86
58 69 70 68 69 71 48 36 37 44 36 51 68 90 68 66 79 65 60 62 56 62 73 78 78 75 86 84 79 79 80 79 80 79 77 83 93 99 97 97 87 89 97 99 99 97 99
96 100 96 96 100 93 92 87 80 74 80 71 82 89 81 79 76 76 86 82 81 92 97 99 98 96 95 92 92 97 94 100 99 98 99 99 99 99 98 89 88 91 100 89 85 99 100
100 98 99 100 98 99 97 98 97 89 84 86 90 96 97 98 97 92 86 86 98 94 89 95 98 99 99 96 99 97 99 100 99 99 99 99 99 99 98 100 100 98 78 80 69 94 94
100 100 100 100 100 100 100 100 99 100 100 100 98 98 98 94 99 97 98 92 91 98 96 93 97 100 97 99 98 90 86 86 86 80 91 99 100 100 98 100 98 71 68 69 75 89 91
100 100 100 100 100 100 100 100 100 99 99 99 99 100 99 98 99 100 99 99 96 98 96 95 83 98 96 97 99 97 96 92 76 71 74 99 100 100 98 98 80 70 77 77 80 88 92
23 67 96 100 100 100 100 100 100 100 99 99 98 99 99 99 98 100 100 99 99 97 95 99 91 95 96 97 100 99 98 88 86 87 78 83 97 99 98 98 82 79 80 79 91 98 97
27 26 26 23 26 51 58 39 61 72 87 86 90 65 69 87 75 96 99 99 99 99 99 96 100 99 99 96 98 100 99 100 98 94 95 96 98 98 97 98 94 92 90 99 98 92 93
30 32 35 35 31 25 20 14 5 4 6 11 14 22 31 93 63 78 99 99 100 96 100 99 99 98 99 100 100 99 99 99 98 98 99 98 98 96 96 98 94 84 86 95 95 98 96
45 47 47 44 38 34 28 20 13 7 4 4 3 6 13 47 28 64 100 100 99 100 99 99 99 100 98 98 98 99 96 98 99 98 97 99 100 97 98 88 96 89 96 96 96 95 95
Wind_Speed
11 12 12 11 10 11 13 14 16 17 16 15 14 13 12 10 9 8 7 6 5 6 7 9 10 10 8 9 8 7 7 5 7 6 9 8 6 4 5 6 6 6 7 7 7 9 10
10 10 10 9 10 11 12 13 14 15 15 13 12 11 10 9 8 7 6 4 3 4 6 6 8 9 8 7 7 7 6 6 6 8 8 8 6 4 4 4 7 8 7 10 8 11 15
8 8 8 9 10 11 12 11 11 12 13 13 12 10 8 7 5 5 5 6 6 5 5 5 7 6 8 7 7 6 5 6 6 7 7 7 7 7 7 6 9 7 6 12 9 14 20
5 6 8 9 10 10 10 9 10 11 11 11 10 10 9 7 5 4 3 3 4 4 5 6 6 5 4 6 6 6 6 7 8 7 7 8 8 8 9 11 7 7 7 7 18 15 19
4 6 8 10 10 9 9 9 9 10 9 9 9 9 9 8 7 6 4 2 3 4 6 6 5 4 4 6 6 6 6 6 8 8 8 9 9 9 10 13 7 8 8 10 11 21 19
3 5 7 8 9 9 8 8 8 8 8 8 8 7 6 6 6 6 5 4 5 6 5 6 5 4 6 6 6 7 6 6 8 9 9 10 10 10 9 7 6 10 10 11 12 16 23
1 3 5 7 7 8 8 8 8 7 7 7 7 6 5 5 5 5 6 6 6 6 6 7 7 6 7 7 6 5 6 7 8 10 11 11 10 5 11 11 11 13 15 15 16 21 29
1 2 4 5 6 7 8 8 8 8 8 7 7 7 7 7 6 7 7 7 7 8 10 10 10 8 7 7 7 6 6 8 9 10 11 12 9 10 13 13 13 15 16 13 17 26 31
4 3 3 4 5 5 6 6 7 8 8 8 8 8 8 8 8 8 8 8 7 8 11 12 12 12 8 8 8 6 7 8 9 10 10 12 13 12 15 15 15 12 12 15 24 31 20
7 6 5 5 5 6 6 7 7 7 8 8 9 9 9 9 8 8 8 7 7 9 8 8 5 5 5 8 7 8 8 9 9 9 12 9 9 14 15 15 13 15 16 21 26 22 8
11 10 9 8 8 8 7 8 8 8 9 9 10 10 10 9 9 9 8 8 8 9 4 4 4 3 5 8 10 10 10 11 11 14 12 12 17 15 19 16 12 15 22 23 27 15 12
12 12 13 12 11 11 11 10 9 9 8 9 9 10 10 10 10 10 10 10 10 3 6 4 5 5 12 11 12 14 14 13 13 13 14 17 15 16 17 13 13 21 19 22 14 6 6
14 14 15 15 15 14 14 14 13 12 12 10 10 10 10 10 10 10 10 10 5 4 5 4 7 12 15 18 16 15 14 13 12 11 11 18 19 16 13 13 14 16 14 7 4 4 8
16 16 17 17 18 18 18 18 17 16 15 14 13 12 12 11 11 11 11 9 5 6 8 12 14 19 18 16 11 9 13 17 17 16 14 7 8 13 13 11 15 18 8 5 7 10 17
20 20 20 20 20 20 20 21 21 20 18 18 17 16 15 13 13 13 11 5 5 8 9 16 20 16 11 9 13 17 16 17 19 6 6 6 9 13 15 21 17 8 7 9 9 17 9
23 23 23 23 23 22 23 23 23 22 22 21 20 19 17 16 16 15 14 12 15 14 17 17 13 9 9 11 16 12 9 15 18 12 13 14 15 16 18 21 19 16 17 7 6 5 10
26 26 26 26 26 26 26 25 25 24 23 23 22 22 20 18 19 17 16 14 19 19 18 14 16 19 17 18 20 16 12 19 23 20 16 16 16 19 19 18 16 21 20 15 12 11 4
29 29 28 28 29 29 28 28 27 25 25 25 24 23 20 21 22 21 19 20 21 21 22 22 23 22 20 19 23 15 18 17 21 23 21 20 18 20 23 24 25 27 18 17 8 6 14
30 31 30 30 30 30 30 30 28 27 27 26 26 26 24 22 16 12 20 25 25 24 21 15 14 18 21 23 18 12 16 20 19 23 17 17 11 13 12 16 15 22 21 26 28 26 20
31 32 32 32 32 32 32 31 30 28 26 25 25 22 24 24 23 22 21 21 21 21 22 27 29 29 31 33 27 23 23 22 25 28 26 27 25 22 24 32 29 31 35 32 28 14 23
32 34 34 35 34 33 33 32 29 26 26 25 24 22 24 16 16 19 23 27 31 30 29 28 33 32 24 21 20 24 24 23 25 26 27 28 37 36 37 35 38 43 43 40 37 42 30
31 33 33 31 33 35 35 33 31 26 26 28 26 27 32 31 32 30 29 32 31 29 28 26 28 23 24 30 31 30 29 24 21 24 28 36 34 32 43 41 39 42 32 34 38 41 43
37 37 37 33 33 36 31 29 28 31 31 29 26 29 31 35 32 30 27 27 25 27 28 27 26 28 29 29 32 35 37 37 35 32 32 34 32 28 41 29 27 24 32 24 22 18 17
43 42 37 35 34 31 29 28 36 30 30 32 36 28 28 38 33 31 27 25 23 21 25 27 28 31 31 32 32 32 32 35 38 41 41 43 44 40 33 21 8 20 17 15 15 21 27
43 41 40 37 39 40 40 40 40 41 33 33 26 25 29 35 34 31 29 28 29 28 28 30 25 25 23 22 26 24 23 22 22 16 20 30 40 34 17 19 25 32 23 19 14 19 25
52 53 50 47 45 45 43 43 45 42 38 39 38 37 31 34 40 35 33 33 31 28 33 31 29 25 28 25 22 15 11 14 10 13 15 17 25 38 20 8 7 14 10 15 20 19 24
46 46 44 40 43 49 49 48 48 47 43 43 45 38 38 41 49 39 38 41 34 32 35 35 33 31 26 24 28 28 27 25 17 19 19 18 21 32 36 16 17 23 23 21 11 17 20
37 40 41 41 41 40 41 41 41 41 41 43 43 39 38 42 49 45 39 39 38 38 35 36 30 29 23 23 24 25 20 17 23 26 25 12 12 16 15 13 10 21 19 15 17 18 25
25 28 32 36 39 40 39 39 39 40 40 43 46 40 38 39 50 39 35 41 38 27 29 35 34 30 26 13 12 10 25 14 26 22 14 18 19 15 15 17 19 27 21 18 19 23 25
Wind_Direction
57 52 53 55 63 67 67 65 64 65 70 78 83 90 97 104 109 107 102 94 81 64 48 43 40 40 42 40 34 27 26 34 35 34 38 40 36 29 15 3 352 359 0 346 336 334 327
58 51 52 57 62 63 63 61 61 63 66 71 78 86 90 93 95 95 91 79 58 40 35 31 38 38 35 35 20 22 20 24 25 28 25 29 23 17 4 343 0 340 332 343 324 331 328
54 51 53 57 58 59 57 56 57 60 63 65 68 70 76 82 87 88 79 65 52 40 21 7 25 21 23 20 14 10 10 15 15 16 16 16 15 10 3 351 341 342 319 336 323 324 329
51 45 51 53 55 54 54 53 52 54 55 58 64 66 67 66 64 55 35 17 15 360 351 2 6 358 359 1 0 355 0 6 5 356 358 1 0 2 5 352 341 357 349 338 312 324 324
51 42 45 48 48 48 46 43 43 44 46 47 49 52 51 48 43 39 28 356 314 320 349 350 345 327 330 339 348 351 353 353 354 351 348 346 347 352 354 4 358 357 321 316 322 324 317
47 36 39 42 43 41 39 36 33 30 29 32 33 33 34 35 31 20 7 351 340 315 306 322 321 322 317 318 334 339 340 335 343 347 341 337 336 342 355 2 325 316 322 314 314 310 316
57 32 29 33 33 33 32 30 27 23 18 11 8 7 2 353 350 352 346 338 323 311 304 293 294 300 306 303 303 325 329 330 335 335 336 332 325 291 323 332 333 328 328 314 317 309 323
283 349 4 12 18 21 22 21 19 14 7 4 357 350 344 340 333 332 331 326 316 294 295 284 271 277 293 304 295 308 326 327 323 322 320 318 294 305 319 320 328 325 328 323 324 326 325
258 281 317 342 352 357 3 8 9 7 1 356 353 349 345 341 332 329 327 322 315 305 294 284 271 264 285 304 303 296 310 314 316 312 310 305 285 305 314 315 318 318 306 315 317 324 325
256 268 282 303 319 330 338 342 351 353 354 355 353 348 346 342 334 332 332 331 325 321 300 291 278 251 281 311 298 299 295 306 308 305 309 294 288 304 308 305 305 327 312 320 322 320 309
264 266 272 280 291 303 314 324 331 335 338 345 349 348 347 345 341 338 336 333 328 321 297 282 280 285 310 312 300 303 298 300 302 305 298 288 298 296 302 294 296 306 316 317 314 302 301
272 271 271 275 282 289 296 303 309 315 322 328 334 338 340 343 342 339 335 329 322 311 252 297 302 316 316 312 305 298 296 294 299 299 295 293 292 290 292 286 288 315 314 320 306 291 251
278 283 282 278 276 279 285 289 292 298 305 313 321 323 322 328 332 333 333 334 329 239 314 300 311 314 311 306 300 295 293 292 294 305 304 303 296 289 287 284 295 314 327 308 258 229 282
276 280 283 284 283 278 277 279 283 287 292 296 301 307 314 320 319 320 322 326 260 264 285 298 305 306 302 304 298 297 294 296 298 291 282 283 288 294 288 269 295 295 277 275 299 306 303
272 273 276 279 282 284 281 279 280 281 283 289 293 296 301 304 310 315 316 287 271 281 285 302 306 303 295 291 298 300 298 292 290 268 254 284 275 295 276 291 296 284 264 260 279 280 278
272 275 276 278 280 280 282 283 284 284 285 286 289 290 293 293 297 299 303 282 281 278 288 292 294 281 290 296 305 300 289 288 285 278 278 277 287 282 282 285 281 256 267 268 237 276 279
269 272 275 277 279 280 281 283 284 287 288 289 290 292 294 291 291 288 286 269 285 285 286 288 283 286 291 292 289 289 277 286 284 282 281 284 279 283 281 278 269 271 252 241 238 237 258
269 270 272 276 279 280 281 283 285 286 287 288 288 291 287 286 290 287 280 280 278 279 282 284 284 285 287 284 290 283 272 266 279 284 283 278 273 270 275 269 267 262 249 246 220 214 232
268 271 273 275 277 278 279 281 283 285 286 287 287 286 286 285 279 275 275 275 275 278 278 278 279 288 293 290 295 285 274 280 273 279 270 275 266 292 284 274 277 260 262 255 255 251 250
270 270 273 274 275 277 278 279 283 285 285 287 291 294 291 289 283 276 270 271 272 275 275 284 289 290 291 288 286 277 276 283 278 276 273 272 262 253 259 275 287 288 283 273 262 237 257
269 270 278 275 275 274 274 276 279 281 284 286 287 287 287 278 279 267 263 272 277 279 282 284 287 288 286 277 273 273 283 282 285 275 270 263 272 282 289 286 294 289 284 280 264 270 248
270 274 275 278 274 275 273 273 274 274 275 276 276 284 287 282 283 283 279 282 279 280 278 278 284 284 267 271 273 269 261 271 262 269 269 275 270 280 289 292 293 290 278 276 272 263 260
267 268 272 272 281 281 288 286 283 276 281 289 282 288 279 279 281 282 280 279 276 283 284 277 279 279 280 282 277 279 275 271 261 272 274 275 269 282 279 291 281 273 285 273 271 260 255
260 266 258 259 260 261 261 267 279 277 279 281 283 290 283 281 278 280 283 281 282 287 283 280 276 281 290 289 289 287 281 278 274 272 271 270 271 272 271 275 252 275 266 254 247 245 259
256 250 249 253 254 259 263 264 266 273 266 264 261 265 277 272 273 274 277 273 283 279 281 289 285 283 287 293 290 299 303 298 296 282 263 255 258 257 251 247 263 274 266 266 252 254 265
270 269 261 254 255 257 263 267 268 266 266 264 266 270 264 271 270 275 276 279 278 278 285 280 285 282 288 293 277 257 261 282 282 285 266 255 245 247 252 249 264 267 273 262 268 260 274
269 270 270 271 272 271 274 275 272 272 268 267 267 269 269 274 269 268 271 275 274 276 279 283 285 279 284 284 268 270 269 263 262 268 276 270 257 240 246 249 262 268 275 277 258 279 269
275 273 271 270 270 267 266 264 261 261 261 262 262 259 260 258 264 267 269 266 269 276 271 286 289 280 270 256 256 260 251 252 270 260 265 275 285 258 247 232 248 265 271 261 263 270 290
295 288 281 275 271 268 267 265 263 261 259 260 263 259 256 255 260 262 261 263 272 267 263 268 266 271 269 268 251 249 284 253 289 286 300 276 260 258 268 264 272 284 287 286 294 295 297